Location: Nairn
(57.5833°N, 3.8667°W)
Time: 17:37:26
(UTC+00:00)

S-56A Canister/Altair - Pass Details

Date: 02 December 2020
Orbit: 633 x 2499 km, 38.9° (Epoch: 19 January)

Event Time Altitude Azimuth Distance (km) Brightness Sun altitude
Rises 19:39:42 0° 232° (SW) 5,701 12.5 -31.1°
Reaches altitude 10° 19:44:45 10° 220° (SW) 4,403 11.7 -31.8°
Maximum altitude 19:52:48 23° 175° (S) 2,932 10.3 -32.8°
Enters shadow 19:53:08 23° 173° (S) 2,909 10.2 -32.9°
Drops below altitude 10° 19:59:01 10° 128° (SE) 3,297 - -33.7°
Sets 20:02:08 0° 114° (ESE) 3,990 - -34.1°
